Погода в Буяге

Погода в Буяге : погода сейчас, прогноз погоды и архив. Всё, что Вы хотите узнать о погоде в Буяге!

Поиск расширенной информации на нашем сайте:

Полезная информация: Содержательный информационный сайт геологии Земли http://www.geologam.ru/

Другие новости

Новости СМИ2

Главная страница сайта

Новости сайта

03.07.2017

Напоминаем, что на нашем специализированном сайте Метеоцентр.Азия вы можете получить высокодетализированные автоматические прогнозы погоды по пунктам России, СНГ и мира в авиационном формате (включающие направление и скорость ветра, видимость, явления погоды, количество и форму облачности, нижнюю и верхнюю границу облачности).

Рекомендуем: Вшэ в праге высшая школа экономики прага.

Погода в Буяге - сегодня

Время (UTC), дата Ветер
(°,м/с) 
Видим.   Явления Облачность Т
(°С)
Тd
(°С)
f(%) Тe
(°С)
Pmin
(гПа)
dP
(гПа)
Po
(мм)
O2
(г/м3)
Тmin Tmax R s Состояние
почвы
03 17.02.18 тихо ()   20000 м    9/0 верхняя 
[Cs]
-23.6 -26.2 79 -24  1025.7  -0.8  741  328           
06 17.02.18 270 (З) 20000 м    3/1 600 м верхняя 
[Cu hum|Ci fib]
-16 -20.2 70 -18  1023.4  -1.1  740  318           
09 17.02.18 тихо ()   20000 м    1/0 верхняя 
[Ci fib]
-18.4 -22.5 70 -18  1023.5  -0.2  740  321           
15 17.02.18 тихо ()   20000 м  {снег}  10/0 верхняя 
[Cs]
-28 -30.5 79 -28  1025.6  0.2  740  334           
18 17.02.18 тихо ()   20000 м  {снег}  10/0 верхняя 
[Cs]
-30.8 -32.6 84 -31  1026.4  0.3  740  338           
21 17.02.18 тихо ()   20000 м    ясно 
-37.1 -38.4 88 -37  1027.7  0.3  740  347           
03 18.02.18 тихо ()   20000 м    10/0 верхняя 
[Cs]
-29 -30.7 85 -29  1025.8  -0.5  740  335           
06 18.02.18 270 (З) 20000 м    10/0 верхняя 
[Cs]
-18.7 -22 75 -19  1022.7  -1.5  739  321           
09 18.02.18 тихо ()   20000 м    10/0 средняя, верхняя 
[Ac trans|Ci fib]
-23.8 -25 90 -24  1023.7  0.2  739  328           
15 18.02.18 тихо ()   20000 м    ясно 
-35.1 -36.2 89 -35  1026.7  0.5  740  344           
18 18.02.18 тихо ()   20000 м    ясно 
-37 -38 90 -37  1027.4  0.4  740  347           
21 18.02.18 тихо ()   20000 м    ясно 
-40.9 -41.6 93 -41  1028.4  0.3  740  353           
03 19.02.18 тихо ()   20000 м  слаб. снег  10/0 верхняя 
[Cs]
-31.5 -33.9 79 -32  1025.2  -0.5  739  339           
06 19.02.18 320 (СЗ) 20000 м  слаб. снег  10/0 средняя, верхняя 
[As trans|Cs]
-23.3 -26.5 75 -29  1022.2  -1.4  738  327           
09 19.02.18 тихо ()   20000 м  в посл. час снег  10/0 средняя, верхняя 
[As trans|Cs]
-24.6 -27.2 79 -25  1021.9  -0.6  738  328           
15 19.02.18 тихо ()   20000 м  слаб. снег  10/0 верхняя 
[Cs]
-35.1 -36.2 89 -35  1022.6  -0.3  737  343           
18 19.02.18 тихо ()   20000 м  слаб. снег  10/0 верхняя 
[Cs]
-36.6 -37.6 90 -37  1022.6  -0.4  737  345           
21 19.02.18 тихо ()   20000 м  слаб. снег  10/0 верхняя 
[Cs]
-40.3 -41.5 89 -40  1022.8  -0.3  737  350           
03 20.02.18 тихо ()   20000 м    ясно 
-31.2 -34.3 74 -31  1020  -0.8  736  337           
06 20.02.18 270 (З) 20000 м    6/0 верхняя 
[Cs]
-22.6 -26.6 70 -28  1017.3  -1.5  735  324           
09 20.02.18 тихо ()   20000 м    9/0 верхняя 
[Cs]
-24.3 -27.5 75 -24  1017.2  -0.2  734  327           
15 20.02.18 тихо ()   20000 м  слаб. снег  10/0 верхняя 
[Cs]
-36 -37.8 83 -36  1021.4  0.4  736  344           
18 20.02.18 тихо ()   20000 м  слаб. снег  10/0 верхняя 
[Cs]
-38.8 -40.6 83 -39  1022.3  0.3  736  348           
21 20.02.18 тихо ()   20000 м  {снег}  ясно 
-44 -45.3 87 -44  1023.1  -0.1  736  356           
03 21.02.18 тихо ()   20000 м    ясно 
-33.8 -37.5 69 -34  1020.8  -0.6  736  340           
Время (UTC), дата Ветер
(°,м/с) 
Видим.   Явления Облачность Т
(°С)
Тd
(°С)
f(%) Тe
(°С)
Pmin
(гПа)
dP
(гПа)
Po
(мм)
O2
(г/м3)
Тmin Tmax R s Состояние
почвы

Для получения пояснительной информации подведите курсор к названию столбца.

ПОГОДА в Буяге - архив

Всё, что Вы хотите узнать о погоде в Буяге - удобно и подробно!

Выберите нужную дату (начиная с 1 января 2015* года) и нажмите кнопку "Найти".
Будут отображены архивные сводки погоды по пункту Буяга, начиная с указанной даты.


Отображать данные в формате CSV (для использования в таблицах Excel)


Внимание! Наш архив погоды предназначен исключительно для личного некоммерческого использования в познавательных целях. Если Вам необходимы официальные справки о состоянии погоды (для производственных, юридических, коммерческих и т.п. целей), обращайтесь в органы Росгидромета.

*Примечание: данная дата относится к архиву по метеостанциям СССР (Россия, СНГ, Балтия).
Архив по метеостанциям Зарубежной Европы и Азии (кроме Китая) хранится 10 дней, по другим регионам земного шара (Китай, Африка, Америка, Австралия, Океания) - 1 день.

Буяга - район местоположения метеостанции


Название, широта, долгота, высота метеостанции:
Буяга 59.6°ш. 127.2°д. 278 м над ур. моря [Российская Федерация]

Дополнительная информация

В oтличие oт бoльшинства пoгoдных сайтoв мы публикуем пoдрoбную метеoинфoрмацию в детальнoм прoфессиoнальнoм фoрмате.

Характеристики температуры и влажнoсти вoздуха измеряются на высoте 2 м в тени вдали oт зданий и деревьев.
Скoрoсть ветра измеряется на высoте 10 м (на урoвне рoста челoвека скoрoсть ветра ниже в 1.5-2 раза). Если метеoстанция нахoдится в гoрoде или в лесу, тo скoрoсть ветра занижена на 2-4 м/с пo сравнению с oткрытым местoм. Скoрoсть ветра над акватoриями крупных рек и oзёр, а также на вершинах хoлмoв на 2-5 м/с выше, чем в oбычных услoвиях.
Атмoсфернoе давление в разных тoчках местнoсти мoжет значительнo oтличаться oт давления на метеoстанции, в зависимoсти oт услoвий рельефа (при пoдъёме на 10 м давление пoнижается примернo на 1 мм рт.ст.).